Riri

operational
NORAD ID: 59136 Int'l Des: 2024-043 Owner: ASPLB Country: B
LEOCIRCULARRETROGRADESSO

About Riri

Description loading...

Live Position

Loading 3D Globe...

Upcoming Passes

Altitude History

Altitude vs Time

uPlot chart will show altitude changes over time

Two-Line Element Set

1 59136U 24043AQ 26049.28585954 .00005845 00000-0 20671-3 0 9995
2 59136 97.5411 185.2708 0008991 299.1048 60.9291 15.29533582108902
Epoch: Feb 18, 2026 • Age: 11 hours

Current Status

Altitude 481.1 km
Velocity 7.63 km/s
Sub-Earth Point -22.79°S, 133.92°E
Launch Date Mar 4, 2024
Age 1.9 years
Type other

Technical Details

Classification Payload
Mass 200.00 kg
Dry Mass 200.00 kg
Total Mass 200.00 kg
Length 1.00 m
Diameter 0.50 m
Span 3.00 m
Shape Box + 2 pan
Manufacturer ASPLB
Bus Type Aerosp
Phase Status In Orbit
Owner/State ASPLB/B

Large Constellations

Loading constellations...